[Date Prev][Date Next][Thread Prev][Thread Next] - [Date Index][Thread Index][Author Index]
2 Line ISS Keps 9-17
- Subject: [sarex] 2 Line ISS Keps 9-17
- From: "Dave Larsen PhD" <doc@xxxxxxxxxxx>
- Date: Tue, 16 Sep 2003 22:30:02 -0700
ISS
1 25544U 98067A 03260.11085961 .00009454 00000-0 11031-3 0 5089
2 25544 51.6300 277.2013 0005626 252.5742 228.8333 15.62396117275368
----
Via the sarex mailing list at AMSAT.ORG courtesy of AMSAT-NA.
To unsubscribe, send "unsubscribe sarex" to Majordomo@amsat.org
AMSAT Home